CAPE
1952 1792 1700 1586 1297 839 1029 1240 1187 1422 1424 1121 1355 1356 1297 1774 1830 1814 1811 1980 2317 2473 2624 2894 3120 3125 3024 3102 3670 3417 3642 3934 3989 3376 3707 3624 3339 3030 2625 2769 3076 3211
2081 1896 1661 1280 1412 1568 1388 1171 1238 1089 1326 1614 1260 1219 1497 1842 2145 2156 2211 2048 2318 2117 2412 2649 2814 2987 3227 3286 3612 3279 4085 4056 3562 3093 3594 4091 3661 3217 3006 3149 3076 3257
2154 2209 2118 1873 1652 1827 1407 1330 1338 1391 1366 1403 1440 1548 1681 1722 1810 1935 2055 1971 1877 1747 2220 2598 2576 2939 2894 3092 3742 3537 3476 3862 3333 3169 3868 3850 3166 3057 3106 2842 2832 3187
2198 2078 1769 1536 1370 1243 1126 1170 1401 1633 1360 1379 1390 1386 1278 1108 1220 1814 2076 2218 2008 1911 2024 2285 2105 2178 2420 2619 3417 3320 3467 3706 3315 3985 3682 3438 3426 3108 3264 3415 3212 2961
2006 1976 1806 1621 1718 1846 1620 1487 1355 1465 1504 1357 1351 1339 1426 1464 1640 1502 1823 2152 2311 2162 2150 2361 2700 2441 2799 3058 3578 3404 3296 3400 3472 3853 3465 3540 3582 3441 2952 2954 3540 3245
1996 2009 1938 1910 1978 2053 1914 1866 1939 1570 1463 1448 1574 1325 1401 1711 1774 1610 1636 1748 2007 1720 1426 1676 2072 2050 2523 3080 3626 3258 3134 2866 2880 4202 4084 3669 3642 2953 2746 3046 3618 3470
1949 2113 2018 1852 1844 1961 1964 1909 1863 1882 1637 1596 1638 1484 1425 1495 1760 1857 1690 1528 1442 1405 1087 1379 1899 2240 2335 2953 3838 3646 3125 3127 3345 4590 4510 3733 3816 3798 3198 2902 3162 3248
1636 1826 1951 1824 1603 1782 1827 1785 1832 1748 1836 1812 1749 1850 1769 1934 2238 2112 2026 1814 1575 1479 1435 1300 2103 2616 2425 2451 3053 3170 3134 2858 2646 3075 3624 3449 3647 4294 3816 2628 2946 3751
1492 1598 1644 1598 1514 1569 1572 1500 1564 1612 1617 1703 1645 1859 2169 2244 2393 2368 2353 2246 1854 1650 1778 1793 1994 2370 2349 2418 2650 3133 3314 2927 2508 3215 3738 3722 3572 3697 3055 2913 2930 3349
1399 1306 1306 1396 1390 1442 1446 1500 1344 1452 1641 1515 1670 1793 2142 2528 2569 2606 2732 2940 2330 2068 2067 2263 2112 2285 2468 2478 2448 2949 3158 3311 3149 3124 3190 3172 3075 2919 2910 3082 3015 3076
1196 1064 1110 1275 1214 1204 1103 1206 1360 1399 1642 1825 1867 1836 2101 2706 2817 2836 2885 3118 2625 2483 2406 2449 2366 2319 2775 2630 2698 2805 2850 2844 2931 3061 3136 3188 3110 3147 3241 3313 3309 3370
1017 869 930 1122 1110 1015 937 957 1054 1345 1632 2049 1899 1777 2123 2509 2952 2765 2582 2979 2761 2389 2430 2658 2489 2609 2734 2800 2662 2664 2595 2680 2717 2974 2947 3033 3219 3228 3285 3258 3222 3600
915 904 837 798 918 995 942 1052 928 1118 1383 1782 1954 1758 1973 2217 2375 2790 2718 2612 2729 2483 2310 2510 2794 2620 2790 2786 2709 2635 2618 2816 2705 2787 2961 3048 3209 3337 3385 3555 3301 3149
1393 906 833 902 802 1004 1030 998 1146 994 1152 1204 1806 1777 1610 1747 1864 2213 2512 2433 2462 2450 2392 2460 2756 2952 2891 2804 2922 2687 2599 2694 2764 2800 2680 2843 2852 3114 3255 3172 3097 2994
2487 1712 1376 1154 1261 1157 1051 979 1002 1156 1049 1310 1377 1541 1417 1240 1487 1670 1915 2228 2182 2295 2325 2294 2451 2889 2965 2930 2576 3012 2898 2592 2551 2702 2668 2612 2624 2624 2862 3009 3066 2936
3429 2767 2274 1967 1820 1992 2031 1595 1147 1079 873 1181 1248 1378 1402 1256 1013 1172 1395 1602 1978 2249 2320 2160 2306 2426 2721 2707 2652 2718 2764 2331 2189 2414 2506 2484 2581 2595 2478 2679 3060 2633
3652 3656 3323 3108 2817 2782 2758 2545 1727 1168 1087 1202 1203 1203 1410 1418 1423 1158 1106 1190 1368 1781 2038 1807 1701 1836 3294 2035 1902 1776 2032 2114 2271 2504 2681 2739 2344 2050 2103 2121 2203 2549
3583 3749 3792 3749 3493 3315 3228 3109 2473 1838 1500 1416 1373 1422 1710 1638 1840 1833 1463 1161 1090 1173 1369 1453 1575 2612 1803 1689 1526 1378 1941 1861 1755 2150 2321 2400 2342 1796 1805 2091 2481 2713
3841 3706 3827 3729 3536 3682 3557 3445 3225 2478 2071 1802 1712 1680 1506 1804 1934 2046 1852 1431 1317 1472 1471 1347 1488 2033 1443 1265 1085 818 811 2000 1722 1658 1683 1864 1896 1855 1851 1758 2132 2454
3644 3786 3828 3792 3834 3915 3794 3520 3386 3186 2577 2017 2197 2301 2032 2078 2294 1981 1880 1893 1608 1719 1798 1834 1804 2484 1428 1271 936 678 564 681 2029 2191 1907 1787 2179 2845 2913 3177 3641 3894
3401 3562 3641 3797 3801 3862 3832 3861 3694 3592 3251 2684 2597 2690 2686 2605 2637 2287 2101 2102 2227 2034 1692 1788 1382 2124 1493 1286 953 652 490 534 1845 2045 1830 1813 2280 3710 4074 3929 4285 4044
3582 3420 3355 3324 3476 3554 3586 3710 3711 3599 3403 3270 2866 2725 2701 2813 2758 2466 2364 2376 2586 2625 2209 1677 2884 1871 1360 1085 866 692 564 1094 1802 2465 2630 2563 2628 3848 4224 4294 3685 3439
2527 3002 2872 2949 3117 3256 3303 3495 3670 3810 3569 3281 3156 2977 2828 2702 2720 2752 2544 2515 2850 2936 2752 2546 2981 1700 1272 1021 821 664 609 1840 2273 2412 2885 3327 3604 3968 3928 3638 2871 2487
1998 2659 2838 2865 3020 3170 3161 3191 3368 3716 3879 3475 3393 3231 2970 2669 2686 2630 2634 2653 2785 3140 2157 2676 1556 1936 1738 1195 759 568 1137 2017 2761 3008 3290 3859 3979 3844 3378 3024 2596 2265
2196 2805 2842 2833 2952 3080 2994 3029 3287 3700 3796 3645 3562 3355 3188 3151 2903 3032 3225 3178 3209 3214 2880 2716 2472 1793 1484 902 601 501 810 2401 3052 3516 3397 3445 3365 3241 2930 2165 2044 2073
2759 2760 2649 2668 2940 3020 2912 3107 3451 3623 3650 3643 3465 3112 3062 3130 3318 2972 3134 2980 3031 3054 2504 2413 2335 1706 1076 811 625 574 514 2047 3272 2830 2867 3012 3061 2636 2318 2216 1962 2078
Wind_Speed
4 4 4 5 6 6 5 4 4 4 5 4 3 3 4 5 6 8 7 8 8 9 8 9 9 9 8 6 7 7 7 7 9 6 5 7 8 7 7 7 7 6
3 3 4 4 5 6 7 5 4 5 4 6 5 4 4 5 4 6 7 8 7 8 8 7 7 7 8 8 6 7 6 6 5 5 5 5 5 6 7 7 8 10
2 2 3 3 4 3 4 5 6 6 5 4 5 7 6 5 5 5 7 7 8 7 5 7 6 6 6 6 7 7 5 5 5 6 6 6 7 8 8 9 9 10
2 2 3 3 4 4 5 5 6 7 7 6 6 6 7 7 6 5 6 7 8 8 7 5 6 5 4 5 5 6 5 5 5 7 7 7 7 8 9 10 9 9
2 2 4 4 6 6 6 6 6 6 7 8 7 7 6 8 7 6 6 5 6 6 5 6 5 6 6 6 5 6 5 5 5 5 6 7 7 7 7 9 10 9
3 5 5 6 7 7 7 6 7 7 6 6 6 6 5 5 6 6 4 3 2 4 3 3 3 3 4 4 4 5 6 6 7 7 6 7 7 8 8 10 9 8
3 4 4 6 6 6 7 6 6 7 6 7 6 6 6 4 5 5 5 4 4 3 3 3 4 4 4 5 4 5 5 6 7 8 7 7 8 8 9 8 8 7
3 4 4 5 5 5 5 5 6 5 6 6 5 5 6 6 6 5 5 4 4 4 5 4 3 4 5 4 4 4 3 4 4 5 6 7 8 8 8 8 8 7
5 5 4 3 3 4 3 4 3 4 4 5 6 5 5 7 5 6 5 5 5 4 3 4 4 4 4 4 4 3 3 4 6 6 6 6 6 6 6 7 6 6
6 6 4 3 3 4 3 4 5 4 4 4 5 6 4 5 6 5 4 4 5 4 3 4 3 4 4 3 3 3 4 4 6 7 7 7 6 6 7 7 6 5
6 6 6 5 4 5 4 5 5 6 6 5 4 4 4 3 3 4 3 2 4 3 3 3 3 3 4 4 4 3 3 3 4 4 4 4 5 5 6 6 6 6
9 7 7 7 6 6 5 6 6 6 7 7 4 4 3 3 3 2 2 2 2 2 1 1 1 2 2 3 3 2 2 2 2 2 2 2 3 5 5 6 7 7
11 10 10 10 9 8 8 8 7 7 7 7 6 4 3 3 4 4 4 3 3 2 2 3 3 3 3 3 2 2 2 3 2 2 3 3 4 5 6 7 8 8
13 13 12 13 13 12 10 9 9 8 8 7 7 6 4 4 5 5 6 5 5 5 5 5 6 7 7 7 6 5 5 5 5 4 4 5 6 8 8 9 9 9
16 16 15 15 15 14 11 10 9 9 9 8 8 7 7 6 6 6 7 7 7 7 7 7 9 9 10 10 9 8 8 8 8 8 8 8 8 9 11 11 9 10
18 18 18 17 17 15 14 12 10 10 9 9 9 9 9 9 8 8 8 8 9 9 9 9 10 11 13 14 14 12 11 11 11 11 11 11 11 11 12 13 12 11
20 19 19 18 18 18 17 15 13 13 12 12 12 11 11 12 11 10 10 10 10 11 10 11 12 12 23 23 18 12 11 11 12 13 13 13 13 14 14 14 14 14
21 21 20 19 19 19 18 18 17 15 15 14 14 14 15 14 14 13 13 12 14 13 13 13 13 24 29 25 20 17 14 13 13 14 15 15 16 16 17 17 17 17
23 22 20 20 19 20 21 21 19 17 16 16 16 16 17 16 16 16 15 15 15 15 15 16 15 30 28 26 22 21 20 16 16 16 15 17 17 18 18 18 18 19
23 23 22 22 21 21 22 21 20 19 19 19 20 20 19 19 19 18 19 18 19 18 19 19 17 29 29 28 26 25 24 21 19 18 18 19 20 21 22 22 22 23
24 23 24 25 24 24 23 22 22 22 21 22 23 22 21 21 22 21 22 22 22 21 21 21 22 35 33 33 30 28 27 24 21 21 21 22 22 25 26 26 27 29
25 25 26 27 27 26 24 24 24 24 23 24 23 24 24 24 24 24 24 24 24 24 23 22 31 36 37 35 35 31 32 26 24 24 23 24 26 28 30 30 30 30
25 25 27 28 29 28 27 27 27 27 26 26 25 24 24 25 26 26 27 26 26 26 26 26 30 36 39 37 36 34 32 28 28 28 28 27 28 30 32 32 30 30
28 28 29 30 31 30 29 30 29 29 28 28 27 27 26 26 28 28 28 28 28 29 27 28 29 39 38 37 35 34 30 30 32 32 32 32 32 32 32 32 32 31
32 34 34 32 31 30 30 30 29 29 30 31 31 30 30 30 30 30 31 31 31 30 30 29 34 41 39 38 35 33 32 33 35 36 35 35 33 33 33 32 33 33
39 38 37 34 32 31 30 30 30 30 31 33 34 33 32 31 31 31 31 31 33 33 35 34 34 41 43 41 38 36 34 35 37 37 36 35 35 33 32 32 33 34
Wind_Direction
156 152 147 143 146 151 153 155 167 185 180 182 179 167 155 173 163 168 164 166 160 152 158 158 160 156 152 160 166 162 173 179 173 194 188 177 178 173 175 189 180 176
171 165 173 162 171 165 164 165 169 182 202 175 175 188 177 183 180 172 170 162 160 153 159 160 156 152 151 161 175 164 179 178 167 179 208 192 181 175 183 183 188 196
216 208 186 165 179 165 156 169 175 180 189 173 178 182 187 178 169 180 170 159 158 158 171 162 163 164 158 166 174 170 174 188 178 185 209 207 191 194 190 185 192 209
240 200 189 162 170 175 162 178 177 176 174 186 180 185 171 173 177 185 175 166 165 165 170 171 167 167 173 171 175 170 185 192 193 207 213 211 210 198 200 202 200 202
254 212 179 172 166 167 168 170 167 180 167 179 186 182 182 171 179 178 184 179 165 162 171 171 179 168 180 182 180 178 193 198 223 225 215 218 219 219 208 211 211 203
216 198 181 168 168 165 166 166 164 168 171 179 177 178 178 178 166 166 182 173 167 147 160 171 184 179 179 201 189 189 194 195 222 236 224 219 211 214 216 226 220 211
222 198 168 166 157 163 152 156 159 157 166 166 185 163 170 165 153 161 163 164 152 174 163 196 194 183 196 206 209 212 200 194 205 227 222 216 225 220 217 224 229 220
209 206 183 169 151 157 141 146 149 153 155 163 160 158 147 139 138 143 151 157 155 165 176 179 206 190 170 200 210 219 199 218 230 227 219 213 215 223 231 227 238 238
213 211 201 174 157 165 149 145 159 152 171 162 148 149 139 130 130 133 141 137 140 156 170 158 173 170 179 175 192 210 207 192 214 239 242 233 239 244 241 249 247 247
227 211 220 217 204 196 188 177 183 191 196 174 157 151 153 142 137 130 129 137 125 131 127 128 143 148 155 167 176 188 202 211 207 211 219 231 236 238 247 256 256 255
243 230 224 229 218 212 210 207 201 204 212 197 178 166 160 182 168 152 146 134 120 111 110 112 120 125 136 142 160 188 202 205 224 240 245 250 250 260 265 266 274 276
250 239 232 232 225 214 209 210 213 212 218 225 206 192 188 206 227 213 196 180 149 136 129 136 150 153 167 154 152 175 212 218 243 258 273 294 305 303 307 306 305 310
246 244 232 228 230 220 214 212 215 224 226 233 235 231 232 231 245 242 229 228 226 214 222 253 262 256 252 259 235 227 239 253 262 296 306 305 315 320 319 319 320 321
232 238 235 231 229 227 217 214 217 222 234 238 245 254 252 260 254 256 257 244 240 241 242 249 262 258 262 264 263 259 265 276 278 273 288 299 304 310 314 318 320 320
226 231 235 237 235 233 231 223 218 221 231 239 246 247 251 256 262 263 259 258 255 248 248 251 257 264 262 268 269 265 258 266 276 284 287 289 294 304 310 309 304 297
228 227 233 239 245 246 244 241 235 233 235 241 245 250 248 251 257 261 264 267 264 263 259 254 256 256 265 264 250 256 270 268 271 276 281 283 286 287 289 290 293 293
237 231 231 236 241 244 246 246 243 238 237 237 244 249 249 253 253 259 264 265 270 271 267 264 261 260 274 279 277 262 252 262 269 274 280 283 287 287 285 286 286 289
244 241 235 235 238 241 243 243 242 242 240 244 245 249 251 253 259 260 260 261 260 264 267 264 262 265 280 283 286 289 281 265 265 269 275 280 282 283 284 285 288 287
246 247 244 239 238 239 241 242 243 244 247 247 248 249 252 256 258 261 261 261 261 262 261 264 265 277 283 286 290 287 285 279 272 272 273 277 277 279 282 284 284 286
248 248 249 245 243 241 241 242 244 246 248 250 250 251 252 256 259 262 261 261 261 261 263 263 263 277 285 286 284 286 287 285 276 276 278 277 277 277 276 278 281 282
247 247 247 246 243 242 243 243 244 242 244 247 250 253 256 257 258 260 260 262 265 266 268 269 268 276 281 281 281 282 283 280 274 274 273 275 277 277 277 280 282 281
247 246 245 245 244 244 243 243 244 245 245 245 245 249 252 255 257 258 262 265 266 267 266 269 265 276 276 277 278 280 281 275 274 273 272 272 275 278 279 279 281 282
244 244 243 244 244 245 243 242 243 244 245 246 247 249 251 254 256 258 259 262 265 265 265 264 266 266 270 273 276 279 279 273 273 272 271 273 273 276 278 281 282 283
237 239 242 241 242 243 242 241 241 242 246 248 248 250 250 251 252 254 257 259 262 264 264 264 266 267 271 272 274 279 276 271 271 271 272 271 272 274 275 276 276 278
237 237 238 238 239 240 240 241 242 243 245 247 247 247 248 250 253 255 257 259 261 263 264 262 262 264 266 269 273 276 272 267 268 269 270 272 273 275 276 274 273 276
234 235 236 236 236 238 240 240 241 241 244 246 246 246 248 250 253 254 258 261 263 264 265 264 265 264 261 257 257 260 262 261 269 269 270 272 272 272 272 272 271 270